Regional Weather Roundup
Issued by NWS

Home | Current Version | Previous Version | Graphics & Text | Print | Product List | Glossary On
Versions: 1 2 3 4 5 6 7 8 9 10 11 12 13 14 15 16 17 18 19 20 21 22 23 24 25 26 27 28 29 30 31 32 33 34 35 36 37 38 39 40 41 42 43 44 45 46 47 48 49 50
000
ASUS43 KLOT 271208
RWRIL

ILLINOIS REGIONAL WEATHER ROUNDUP
NATIONAL WEATHER SERVICE CHICAGO/ROMEOVILLE IL
700 AM CDT WED JUL 27 2016

NOTE: "FAIR" INDICATES FEW OR NO CLOUDS BELOW 12,000 FEET WITH NO
SIGNIFICANT WEATHER AND/OR OBSTRUCTIONS TO VISIBILITY.

* THESE STATIONS ARE NOT UNDER NWS QUALITY CONTROL. THEY ALSO MAY NOT
  REPORT WEATHER SUCH AS PRECIPITATION OR FOG.

ILZ001-002-007-009-015-016-024-271300-
NORTHWEST ILLINOIS

CITY           SKY/WX    TMP DP  RH WIND       PRES   REMARKS
MOLINE         SUNNY     69  65  86 E6        30.02S
6HR MIN TEMP:  65; 6HR MAX TEMP:  69;

STERLING*      SUNNY     67  66  97 CALM      30.04R
SAVANNA*       SUNNY     66  66  99 CALM      30.02F
$$

ILZ003-004-008-010-011-017-018-271300-
NORTH CENTRAL ILLINOIS

CITY           SKY/WX    TMP DP  RH WIND       PRES   REMARKS
ROCKFORD       PTSUNNY   68  63  84 CALM      30.04F
6HR MIN TEMP:  66; 6HR MAX TEMP:  69;

FREEPORT*      SUNNY     63  62  97 CALM      30.05S
ROCHELLE*      SUNNY     66  65  96 CALM      30.04S
DE KALB*       SUNNY     71  66  87 CALM      30.04F
$$

ILZ005-006-012>014-019>023-271300-
NORTHEAST ILLINOIS

CITY           SKY/WX    TMP DP  RH WIND       PRES   REMARKS
CHICAGO-OHARE  MOSUNNY   72  66  81 CALM      30.02S
6HR MIN TEMP:  68; 6HR MAX TEMP:  74;

CHICAGO-MIDWAY MOSUNNY   74  66  76 CALM      30.02F
6HR MIN TEMP:  71; 6HR MAX TEMP:  78;

AURORA         SUNNY     67  65  93 CALM      30.03F
6HR MIN TEMP:  64; 6HR MAX TEMP:  69;

LANSING*       MOSUNNY   69  66  90 S3        30.03F
JOLIET*        SUNNY     71  70  95 CALM      30.03S
WAUKEGAN       SUNNY     73  67  81 CALM      30.02S
6HR MIN TEMP:  66; 6HR MAX TEMP:  73;

DUPAGE AIRPORT SUNNY     70  65  84 CALM      30.03S
6HR MIN TEMP:  65; 6HR MAX TEMP:  71;

KANKAKEE*      SUNNY     68  67  94 CALM      30.04S
WHEELING       SUNNY     71  66  84 CALM      30.03S
6HR MIN TEMP:  66; 6HR MAX TEMP:  71;

MORRIS*        SUNNY     69  67  95 CALM      30.03S FOG
ROMEOVILLE*    SUNNY     69  66  90 S3        30.04S
NORTHERLY ISL    N/A     76  64  66 W3          N/A
$$

LMZ740>746-271300-
SOUTHERN LAKE MICHIGAN

STATION/POSITION SKY/WX   TEMP    WIND        PRES    VSBY  WAVE
                          AIR SEA DIR/SP/G                  HT/PER
                          (F)     (DEG/KT/KT) (MB)    (MI)  (FT/S)
SOUTHERN BUOY              75 74  250/  6/  6 1015.6R         0
WILMETTE HARBOR            72 74  240/  2/  4   N/A           0
HARRISON CRIB              73     340/  4/  4   N/A
BURNHAM HARBOR             75      10/  1/  5   N/A
CALUMET HARBOR             72     230/  3/  4 1016.3R
BURNS HARBOR               70     180/  5/  7 1017.3R
MICHIGAN CITY              70     180/  6/  7   N/A
MICHIGAN CITY 6N           74 75  230/  6/  8   N/A           1
ST. JOSEPH                 73 77  180/  6/  6 1016.5S         0
$$

ILZ025>027-034>036-040-047-049-050-058-095>099-271300-
WEST-CENTRAL ILLINOIS

CITY           SKY/WX    TMP DP  RH WIND       PRES   REMARKS
QUINCY         CLEAR     72  69  90 E6        30.00F
GALESBURG*     MOSUNNY   68  67  98 CALM      30.03S FOG
MACOMB*        PTSUNNY   67  67 100 E3        30.04S FOG
JACKSONVILLE*  CLOUDY    71  69  93 E3        30.01F
PITTSFIELD*    PTSUNNY   73  72  97 CALM      30.02S
$$

ILZ028>032-037-038-041>044-048-051>054-059>061-271300-
CENTRAL ILLINOIS

CITY           SKY/WX    TMP DP  RH WIND       PRES   REMARKS
PONTIAC        SUNNY     70  70 100 CALM      30.05R FOG
BLOOMINGTON    SUNNY     70  68  93 SE3       30.05S
DECATUR        PTSUNNY   69  66  90 NE3       30.04R
PEORIA         SUNNY     72  70  93 CALM      30.03S
6HR MIN TEMP:  68; 6HR MAX TEMP:  74;

LACON*         SUNNY     70  68  92 CALM      30.02S
LINCOLN*       SUNNY     69  68  97 CALM      30.03S
SPRINGFIELD    MOSUNNY   73  69  87 E3        30.03S
6HR MIN TEMP:  71; 6HR MAX TEMP:  74;

TAYLORVILLE    PTSUNNY   72  69  89 MISG      30.03S
6HR MIN TEMP:  68; 6HR MAX TEMP:  72;

$$

ILZ033-039-045-046-055>057-062-063-271300-
EAST-CENTRAL ILLINOIS

CITY           SKY/WX    TMP DP  RH WIND       PRES   REMARKS
CHAMPAIGN      SUNNY     69  66  90 E3        30.05R
MATTOON        PTSUNNY   69  66  90 CALM      30.04R
PARIS*         CLOUDY    67  67 100 CALM      30.05S
$$

ILZ079-100>102-271300-
SOUTHWEST ILLINOIS

CITY           SKY/WX    TMP DP  RH WIND       PRES   REMARKS
ALTON          PTSUNNY   73  73 100 CALM      30.01S FOG
BELLEVILLE     CLOUDY    74  74 100 W2        29.99S
CAHOKIA*       CLOUDY    75  72  90 CALM      30.00R
SPARTA*        CLOUDY    73  73  99 CALM      30.02S
$$

ILZ064>066-069>071-074>076-080>082-084>086-088>090-092>094-271300-
SOUTH-CENTRAL ILLINOIS

CITY           SKY/WX    TMP DP  RH WIND       PRES   REMARKS
CARBONDALE     FOG       74  73  97 CALM      30.01R VSB 1/4
6HR MIN TEMP:  73; 6HR MAX TEMP:  75;

CAIRO*         SUNNY     73  73 100 CALM      30.00S FOG
EFFINGHAM*     CLOUDY    72  71  98 CALM      30.05R
MARION         PTSUNNY   75  73  94 N6        30.02S FOG
MT. VERNON     CLOUDY    73  70  88 MISG      30.01R
CENTRALIA*     CLOUDY    75  75 100 CALM      30.01R FOG
SALEM*         CLOUDY    75  73  94 CALM      30.02R FOG
METROPOLIS*    SUNNY     74  73  99 CALM      30.01R FOG
$$

ILZ067-068-072-073-078-083-087-091-271300-
SOUTHEAST ILLINOIS

CITY           SKY/WX    TMP DP  RH WIND       PRES   REMARKS
LAWRENCEVILLE  CLOUDY    74  73  97 NE3       30.02R
FLORA*         CLOUDY    74  73  96 N5        30.02R
FAIRFIELD*     CLOUDY    74  74 100 CALM      30.00S
HARRISBURG*    CLOUDY    73  73 100 CALM      30.01S
ROBINSON*      CLOUDY    71  71 100 N5        30.04R
CARMI*         CLOUDY    73  73 100 CALM      30.00S FOG
$$

ABBREVIATIONS USED IN REMARKS
   TC - TEMPERATURE IN CELSIUS
  WCI - WIND CHILL INDEX
   HX - HEAT INDEX
  VSB - VISIBILITY
$$





USA.gov is the U.S. government's official web portal to all federal, state and local government web resources and services.